Location: ?????
(55.6500°N, 37.2500°E)
Time: 05:01:45
(UTC+00:00)

Cosmos 1500 Rocket - Pass Details

Date: 19 May 2025
Orbit: 598 x 623 km, 82.5° (Epoch: 19 June)

Event Time Altitude Azimuth Distance (km) Brightness Sun altitude
Rises 21:07:36 0° 345° (NNW) 2,879 8.8 -14.3°
Reaches altitude 10° 21:09:51 10° 341° (NNW) 1,974 7.4 -14.3°
Maximum altitude 21:14:07 55° 264° (W) 745 3.9 -14.3°
Enters shadow 21:16:40 23° 195° (SSW) 1,328 4.7 -14.3°
